This is the latest recevied weather packets stored in our database for station/object KE8AFF-13. If no packets are shown the sender has not sent any weather packets the latest 10 day(s).
| Time | Temp. | Humidity | Pressure | Rain* | Wind** | Luminosity | Snow |
|---|---|---|---|---|---|---|---|
| 1777920486 | 22.22° C | 56% | 1005 hPa | 0 mm | - | 343 W/m² | - |
| 1777920182 | 22.22° C | 55% | 1005.2 hPa | 0 mm | - | 784 W/m² | - |
| 1777919878 | 22.78° C | 55% | 1005.4 hPa | 0 mm | - | 740 W/m² | - |
| 1777919574 | 22.22° C | 56% | 1005.5 hPa | 0 mm | - | 772 W/m² | - |
| 1777919273 | 21.67° C | 56% | 1005.5 hPa | 0 mm | - | 756 W/m² | - |
| 1777918970 | 22.22° C | 56% | 1005.4 hPa | 0 mm | - | 651 W/m² | - |
| 1777918668 | 21.67° C | 56% | 1005.3 hPa | 0 mm | - | 795 W/m² | - |
| 1777918364 | 22.22° C | 57% | 1005.6 hPa | 0 mm | - | 325 W/m² | - |
| 1777918064 | 21.67° C | 58% | 1005.8 hPa | 0 mm | - | 789 W/m² | - |
| 1777917762 | 21.11° C | 58% | 1005.5 hPa | 0 mm | - | 580 W/m² | - |
| 1777917459 | 21.11° C | 58% | 1005.6 hPa | 0 mm | - | 737 W/m² | - |
| 1777917156 | 20.56° C | 59% | 1005.8 hPa | 0 mm | - | 722 W/m² | - |
| 1777916854 | 20.56° C | 59% | 1006 hPa | 0 mm | - | 695 W/m² | - |
| 1777916552 | 21.11° C | 59% | 1006 hPa | 0 mm | - | 677 W/m² | - |
| 1777916248 | 20.56° C | 60% | 1005.9 hPa | 0 mm | - | 678 W/m² | - |
| 1777915945 | 20.56° C | 59% | 1006 hPa | 0 mm | - | 700 W/m² | - |
| 1777915641 | 20.56° C | 60% | 1006.3 hPa | 0 mm | - | 730 W/m² | - |
| 1777915338 | 20.56° C | 60% | 1006.2 hPa | 0 mm | - | 737 W/m² | - |
| 1777915034 | 20° C | 58% | 1006.6 hPa | 0 mm | - | 732 W/m² | - |
| 1777914731 | 20° C | 61% | 1006.5 hPa | 0 mm | - | 761 W/m² | - |
| 1777914428 | 20° C | 61% | 1006.5 hPa | 0 mm | - | 748 W/m² | - |
| 1777914126 | 19.44° C | 61% | 1006.7 hPa | 0 mm | - | 745 W/m² | - |
| 1777913822 | 19.44° C | 61% | 1006.7 hPa | 0 mm | - | 743 W/m² | - |
| 1777913518 | 19.44° C | 62% | 1006.9 hPa | 0 mm | - | 737 W/m² | - |
| 1777913214 | 19.44° C | 61% | 1007 hPa | 0 mm | - | 727 W/m² | - |
* Rain latest hour (hover to see other rain measurements)
** Current wind speed in m/s (hover to see current wind gust speed)